Walla Walla, WA
on Friday, November 30, 2012

Friday
Previous Day Next Day
Daily Summary
 ActualAverage (KPDT)Record (KPDT)
Temperature
Mean Temperature °F 36°F  
Max Temperature 59°F 43°F 71°F (1892)
Min Temperature 35°F 30°F 4°F (1896)
Degree Days
Heating Degree Days 18 29  
Month to date heating degree days 710  
Since 1 July heating degree days 1253  
Cooling Degree Days 0 0  
Month to date cooling degree days 0  
Year to date cooling degree days 636  
Moisture
Dew Point 40°F   
Average Humidity 84    
Maximum Humidity 100    
Minimum Humidity 46    
Precipitation
Precipitation 0.07 in 0.05 in 0.67 in (1993)
Month to date precipitation 1.52  
Year to date precipitation 11.19  
Snow
Snow 0.00 in 0.10 in 1.20 in (2007)
Month to date snowfall 1.4  
Year to date snowfall 9.2  
Since 1 July snowfall 1.5  
Snow Depth in   
Wind
Wind Speed 7 mph   
Max Wind Speed 18 mph   
Max Gust Speed 22 mph   
Visibility 6 miles   
Events Fog , Rain   

Key: T is trace of precipitation, MM is missing value
Source: NWS Daily Summary
Time(PST)TemperatureDew PointHumidity Pressure Visibility Wind DirectionWind SpeedGust SpeedPrecipitationEvents Conditions
12:34 AM 37.4°F 37.4°F 100% 29.59 in 2.5 miles SW 8.1 mph - 0.02 in Rain Light Rain
12:41 AM 37.4°F 35.6°F 93% 29.59 in 1.0 miles SSW 9.2 mph - 0.02 in Rain Light Rain
12:48 AM 37.4°F 35.6°F 93% 29.59 in 0.8 miles SSW 8.1 mph - 0.02 in Rain Light Rain
12:53 AM 36.0°F 36.0°F 100% 29.62 in 0.5 miles SSW 6.9 mph - 0.02 in Fog Fog
1:07 AM 35.6°F 35.6°F 100% 29.58 in 0.5 miles SE 4.6 mph - N/A Fog Fog
1:19 AM 35.6°F 35.6°F 100% 29.57 in 2.0 miles SE 5.8 mph - N/A   Overcast
1:27 AM 37.4°F 35.6°F 93% 29.56 in 3.0 miles ESE 5.8 mph - 0.00 in Rain Light Rain
1:53 AM 39.9°F 37.9°F 93% 29.58 in 6.0 miles Variable 3.5 mph - 0.00 in   Mostly Cloudy
2:53 AM 43.0°F 41.0°F 93% 29.57 in 8.0 miles Calm Calm - N/A   Overcast
3:53 AM 44.1°F 39.9°F 85% 29.57 in 7.0 miles South 11.5 mph - 0.01 in Rain Light Rain
4:11 AM 51.8°F 44.6°F 76% 29.53 in 9.0 miles SSE 15.0 mph - 0.01 in Rain Light Rain
4:53 AM 53.1°F 43.0°F 69% 29.51 in 10.0 miles SE 16.1 mph - 0.01 in   Mostly Cloudy
5:53 AM 42.1°F 39.0°F 89% 29.53 in 10.0 miles West 4.6 mph - N/A   Clear
6:53 AM 41.0°F 39.0°F 93% 29.55 in 10.0 miles ENE 3.5 mph - N/A   Mostly Cloudy
7:43 AM 37.4°F 35.6°F 93% 29.53 in 2.0 miles South 8.1 mph - N/A   Mostly Cloudy
7:53 AM 37.0°F 36.0°F 96% 29.57 in 2.0 miles South 10.4 mph - N/A   Mostly Cloudy
8:00 AM 37.4°F 35.6°F 93% 29.54 in 0.5 miles South 8.1 mph - N/A Fog Fog
8:28 AM 37.4°F 35.6°F 93% 29.57 in 0.2 miles SSW 8.1 mph - N/A Fog Fog
8:37 AM 35.6°F 35.6°F 100% 29.57 in 0.2 miles South 6.9 mph - N/A Fog Fog
8:53 AM 36.0°F 35.1°F 97% 29.61 in 0.2 miles South 9.2 mph - 0.00 in Fog , Rain Light Rain
9:20 AM 35.6°F 35.6°F 100% 29.60 in 0.2 miles South 8.1 mph - 0.02 in Fog , Rain Light Rain
9:25 AM 35.6°F 35.6°F 100% 29.60 in 0.8 miles SSE 9.2 mph - 0.02 in Rain Light Rain
9:42 AM 37.4°F 37.4°F 100% 29.60 in 2.5 miles SE 9.2 mph - 0.02 in Rain Light Rain
9:50 AM 37.4°F 37.4°F 100% 29.61 in 4.0 miles SE 5.8 mph - 0.02 in Rain Light Rain
9:53 AM 37.9°F 37.0°F 97% 29.63 in 4.0 miles SE 5.8 mph - 0.02 in Rain Light Rain
10:53 AM 50.0°F 43.0°F 77% 29.61 in 10.0 miles South 5.8 mph - 0.00 in   Clear
11:53 AM 53.1°F 46.0°F 77% 29.59 in 10.0 miles NW 3.5 mph - N/A   Clear
12:53 PM 57.0°F 46.9°F 69% 29.60 in 6.0 miles Calm Calm - N/A   Haze
1:42 PM 57.2°F 46.4°F 67% 29.59 in 10.0 miles Calm Calm - N/A   Clear
1:53 PM 57.9°F 46.9°F 67% 29.60 in 10.0 miles ENE 3.5 mph - N/A   Clear
2:53 PM 57.9°F 50.0°F 75% 29.60 in 10.0 miles NNE 5.8 mph - N/A   Mostly Cloudy
3:53 PM 54.0°F 46.9°F 77% 29.60 in 10.0 miles East 8.1 mph - N/A   Clear
4:53 PM 46.9°F 43.0°F 86% 29.58 in 10.0 miles East 5.8 mph - N/A   Clear
5:53 PM 50.0°F 42.1°F 74% 29.59 in 10.0 miles South 4.6 mph - N/A   Scattered Clouds
6:53 PM 51.1°F 42.1°F 71% 29.58 in 10.0 miles SSE 6.9 mph - N/A   Overcast
7:53 PM 57.0°F 39.9°F 53% 29.58 in 10.0 miles SSW 9.2 mph - N/A   Overcast
8:53 PM 55.9°F 41.0°F 57% 29.59 in 10.0 miles SW 9.2 mph - 0.01 in   Overcast
9:53 PM 52.0°F 41.0°F 66% 29.60 in 10.0 miles Calm Calm - N/A   Mostly Cloudy
10:53 PM 59.0°F 39.0°F 48% 29.57 in 10.0 miles South 18.4 mph - N/A   Overcast
11:53 PM 59.0°F 37.9°F 46% 29.57 in 10.0 miles SSE 16.1 mph 21.9 mph N/A   Overcast
Moon Phase
Nov. 30 Dec. 06 Dec. 13 Dec. 20 Dec. 28
Sunrise:07:14 AM (PST) Moon Rise:06:09 PM (PST)
Sunset:04:09 PM (PST) Moon Set:08:49 AM (PST)

Copyright © 2014 The Weather Underground, Inc.